Date,TemperatureHighF,TemperatureAvgF,TemperatureLowF,DewpointHighF,DewpointAvgF,DewpointLowF,HumidityHigh,HumidityAvg,HumidityLow,PressureMaxIn,PressureMinIn,WindSpeedMaxMPH,WindSpeedAvgMPH,GustSpeedMaxMPH,PrecipitationSumIn
2013-8-1,81.9,68.6,62.2,69.7,64.5,58.9,99,88,64,29.93,29.79,7,2,0,0.03
2013-8-2,82.0,67.1,57.2,65.0,60.2,56.9,99,80,51,29.96,29.87,5,1,0,0.00
2013-8-3,80.6,67.9,57.0,70.7,62.8,56.7,99,85,64,29.96,29.86,6,1,0,0.00
2013-8-4,78.3,68.0,58.3,64.3,59.7,54.8,99,77,50,30.00,29.87,9,3,0,0.00
2013-8-5,72.7,64.3,53.6,64.3,58.3,52.4,98,82,61,30.03,29.92,6,2,0,0.00
2013-8-6,76.6,68.5,61.7,69.6,65.7,61.4,99,91,73,29.96,29.89,10,2,0,0.00
2013-8-7,75.4,68.8,64.2,71.3,67.0,63.9,99,94,85,30.00,29.93,4,1,0,0.02
2013-8-8,77.4,70.2,65.5,72.6,68.4,64.9,99,94,82,29.98,29.93,7,2,0,0.04
2013-8-9,84.2,73.5,67.3,76.1,70.3,67.0,99,90,73,29.96,29.88,5,2,0,0.11
2013-8-10,84.6,73.6,66.0,73.2,69.4,65.7,99,87,67,30.03,29.94,6,2,0,0.00
2013-8-11,87.1,72.0,64.6,74.3,68.6,64.3,99,90,64,30.05,29.94,7,1,0,0.62
2013-8-12,83.3,72.4,64.9,71.3,67.4,64.6,99,86,62,30.00,29.87,8,2,0,0.12
2013-8-13,83.3,69.1,63.1,72.5,66.3,60.4,99,91,70,29.89,29.72,6,2,0,0.12
2013-8-14,72.7,62.3,54.3,60.2,53.5,47.2,92,74,50,30.04,29.80,12,3,0,0.00
2013-8-15,69.4,56.5,46.4,56.2,50.9,45.7,99,83,61,30.09,29.99,7,2,0,0.00
2013-8-16,72.1,56.9,44.6,59.5,52.9,44.3,99,87,63,30.12,30.01,6,1,0,0.00
2013-8-17,64.9,57.4,51.6,59.9,55.9,51.3,99,95,83,30.14,30.09,10,3,0,0.72
2013-8-18,70.0,61.4,57.6,66.3,60.5,57.3,99,97,86,30.15,30.08,8,2,0,1.30
2013-8-19,73.2,65.6,60.6,69.2,64.3,60.3,99,96,86,30.14,30.00,3,1,0,0.18
2013-8-20,76.8,67.1,58.8,71.9,65.2,58.5,99,94,82,30.13,30.05,6,1,0,0.00
2013-8-21,80.2,68.3,60.1,73.5,66.7,59.8,99,95,80,30.16,30.04,4,1,0,0.50
2013-8-22,82.0,69.0,59.9,72.0,65.5,59.6,99,90,66,30.08,29.93,7,2,0,0.01
2013-8-23,79.0,68.1,60.3,71.2,65.5,60.0,99,92,76,30.06,29.86,7,2,0,0.00
2013-8-24,75.7,63.7,54.5,63.1,57.7,54.2,99,83,57,30.26,30.06,7,2,0,0.00
2013-8-25,73.9,61.3,51.1,64.8,55.4,50.8,99,83,53,30.34,30.21,6,1,0,0.00
2013-8-26,83.5,64.0,49.8,64.2,57.7,49.5,99,83,46,30.27,30.03,7,1,0,0.00
2013-8-27,78.3,70.0,61.0,71.1,66.5,60.7,99,89,75,30.04,29.90,7,2,0,0.00
2013-8-28,80.1,71.4,65.7,72.8,68.7,65.4,99,92,78,29.96,29.79,11,3,0,0.04
2013-8-29,80.2,72.4,67.3,73.5,69.0,65.7,99,90,76,29.98,29.81,13,4,0,0.00
2013-8-30,80.2,69.3,60.3,72.9,66.8,60.0,99,92,76,29.99,29.85,7,2,0,0.00
2013-8-31,84.2,70.2,63.5,74.0,67.3,63.1,99,91,67,29.88,29.75,6,2,0,0.06